This is the latest recevied weather packets stored in our database for station/object DG8SBT-13. If no packets are shown the sender has not sent any weather packets the latest 10 day(s).
| Time | Temp. | Humidity | Pressure | Rain* | Wind** | Luminosity | Snow |
|---|---|---|---|---|---|---|---|
| 1777805153 | 25° C | 31% | 1016.1 hPa | - | - | - | - |
| 1777803361 | 25° C | 31% | 1016.4 hPa | - | - | - | - |
| 1777801571 | 23.89° C | 31% | 1016.7 hPa | - | - | - | - |
| 1777797989 | 23.33° C | 32% | 1017.1 hPa | - | - | - | - |
| 1777796199 | 22.78° C | 33% | 1017.3 hPa | - | - | - | - |
| 1777794408 | 22.78° C | 33% | 1017.4 hPa | - | - | - | - |
| 1777792617 | 22.22° C | 34% | 1017.3 hPa | - | - | - | - |
| 1777790825 | 21.67° C | 35% | 1017.5 hPa | - | - | - | - |
| 1777789036 | 21.11° C | 33% | 1017.3 hPa | - | - | - | - |
| 1777787245 | 21.11° C | 33% | 1017.3 hPa | - | - | - | - |
| 1777785455 | 20.56° C | 32% | 1017.2 hPa | - | - | - | - |
| 1777783663 | 20.56° C | 33% | 1017.1 hPa | - | - | - | - |
| 1777781872 | 20.56° C | 32% | 1017.2 hPa | - | - | - | - |
| 1777780081 | 21.11° C | 32% | 1017.1 hPa | - | - | - | - |
| 1777778291 | 21.11° C | 31% | 1016.9 hPa | - | - | - | - |
| 1777776502 | 21.11° C | 31% | 1017 hPa | - | - | - | - |
| 1777774713 | 21.11° C | 30% | 1017.1 hPa | - | - | - | - |
| 1777772922 | 21.67° C | 30% | 1017.3 hPa | - | - | - | - |
| 1777771132 | 21.67° C | 29% | 1017.1 hPa | - | - | - | - |
| 1777767549 | 21.67° C | 29% | 1017.4 hPa | - | - | - | - |
| 1777765759 | 22.22° C | 29% | 1017.6 hPa | - | - | - | - |
| 1777763969 | 22.22° C | 28% | 1017.6 hPa | - | - | - | - |
| 1777762180 | 22.78° C | 28% | 1017.5 hPa | - | - | - | - |
| 1777760389 | 23.33° C | 27% | 1017.7 hPa | - | - | - | - |
| 1777758601 | 23.89° C | 29% | 1017.7 hPa | - | - | - | - |
* Rain since midnight (hover to see other rain measurements)
** Current wind speed in m/s (hover to see current wind gust speed)